Year,Month,Day,Hour,Minute,Value (Times are PST for windgust in km/hr)
2017,06,14,00,00,11.30
2017,06,14,00,01,6.40
2017,06,14,00,02,12.90
2017,06,14,00,03,12.90
2017,06,14,00,04,9.60
2017,06,14,00,05,8.10
2017,06,14,00,06,8.10
2017,06,14,00,07,12.90
2017,06,14,00,08,8.10
2017,06,14,00,09,12.90
2017,06,14,00,10,14.50
2017,06,14,00,11,12.90
2017,06,14,00,12,9.60
2017,06,14,00,13,12.90
2017,06,14,00,14,12.90
2017,06,14,00,15,6.40
2017,06,14,00,16,6.40
2017,06,14,00,17,4.80
2017,06,14,00,18,6.40
2017,06,14,00,19,9.60
2017,06,14,00,20,8.10
2017,06,14,00,21,6.40
2017,06,14,00,22,4.80
2017,06,14,00,23,6.40
2017,06,14,00,24,6.40
2017,06,14,00,25,4.80
2017,06,14,00,26,6.40
2017,06,14,00,27,6.40
2017,06,14,00,28,8.10
2017,06,14,00,29,1.60
2017,06,14,00,32,6.40
2017,06,14,00,33,4.80
2017,06,14,00,34,4.80
2017,06,14,00,35,4.80
2017,06,14,00,36,4.80
2017,06,14,00,37,9.60
2017,06,14,00,38,4.80
2017,06,14,00,39,4.80
2017,06,14,00,43,3.20
2017,06,14,00,44,4.80
2017,06,14,00,45,6.40
2017,06,14,00,46,6.40
2017,06,14,00,47,3.20
2017,06,14,00,48,1.60
2017,06,14,00,49,1.60
2017,06,14,00,51,1.60
2017,06,14,00,52,1.60
2017,06,14,00,53,3.20
2017,06,14,00,54,3.20
2017,06,14,00,55,3.20
2017,06,14,00,56,3.20
2017,06,14,00,57,4.80
2017,06,14,00,58,4.80
2017,06,14,00,59,3.20
2017,06,14,01,00,3.20
2017,06,14,01,01,3.20
2017,06,14,01,02,4.80
2017,06,14,01,03,3.20
2017,06,14,01,04,3.20
2017,06,14,01,05,4.80
2017,06,14,01,06,4.80
2017,06,14,01,07,4.80
2017,06,14,01,08,3.20
2017,06,14,01,09,1.60
2017,06,14,09,31,6.40
2017,06,14,09,32,4.80
2017,06,14,09,37,4.80
2017,06,14,09,38,4.80
2017,06,14,09,39,3.20
2017,06,14,09,40,3.20
2017,06,14,09,41,4.80
2017,06,14,09,42,4.80
2017,06,14,09,43,4.80
2017,06,14,09,44,4.80
2017,06,14,09,45,6.40
2017,06,14,09,46,6.40
2017,06,14,09,47,4.80
2017,06,14,09,48,4.80
2017,06,14,09,50,1.60
2017,06,14,09,51,3.20
2017,06,14,09,52,4.80
2017,06,14,09,53,1.60
2017,06,14,09,54,3.20
2017,06,14,09,55,3.20
2017,06,14,09,56,1.60
2017,06,14,09,57,1.60
2017,06,14,09,58,4.80
2017,06,14,09,59,6.40
2017,06,14,10,00,14.50
2017,06,14,10,01,12.90
2017,06,14,10,02,17.70
2017,06,14,10,03,16.10
2017,06,14,10,04,16.10
2017,06,14,10,05,17.70
2017,06,14,10,06,16.10
2017,06,14,10,07,16.10
2017,06,14,10,08,12.90
2017,06,14,10,09,12.90
2017,06,14,10,10,14.50
2017,06,14,10,11,16.10
2017,06,14,10,12,17.70
2017,06,14,10,13,17.70
2017,06,14,10,14,19.30
2017,06,14,10,15,14.50
2017,06,14,10,16,17.70
2017,06,14,10,17,20.90
2017,06,14,10,18,16.10
2017,06,14,10,19,11.30
2017,06,14,10,20,16.10
2017,06,14,10,21,16.10
2017,06,14,10,22,19.30
2017,06,14,10,23,17.70
2017,06,14,10,24,14.50
2017,06,14,10,25,19.30
2017,06,14,10,26,16.10
2017,06,14,10,27,17.70
2017,06,14,10,28,16.10
2017,06,14,10,29,16.10
2017,06,14,10,30,19.30
2017,06,14,10,31,19.30
2017,06,14,10,32,17.70
2017,06,14,10,33,16.10
2017,06,14,10,34,19.30
2017,06,14,10,35,16.10
2017,06,14,10,36,17.70
2017,06,14,10,37,16.10
2017,06,14,10,38,14.50
2017,06,14,10,39,14.50
2017,06,14,10,40,11.30
2017,06,14,10,41,16.10
2017,06,14,10,42,16.10
2017,06,14,10,43,14.50
2017,06,14,10,44,16.10
2017,06,14,10,45,14.50
2017,06,14,10,46,14.50
2017,06,14,10,47,16.10
2017,06,14,10,48,14.50
2017,06,14,10,49,16.10
2017,06,14,10,50,12.90
2017,06,14,10,51,16.10
2017,06,14,10,52,14.50
2017,06,14,10,53,16.10
2017,06,14,10,54,12.90
2017,06,14,10,55,14.50
2017,06,14,10,56,17.70
2017,06,14,10,57,17.70
2017,06,14,10,58,17.70
2017,06,14,10,59,19.30
2017,06,14,11,00,17.70
2017,06,14,11,01,16.10
2017,06,14,11,02,16.10
2017,06,14,11,03,16.10
2017,06,14,11,04,14.50
2017,06,14,11,05,12.90
2017,06,14,11,06,12.90
2017,06,14,11,07,14.50
2017,06,14,11,08,12.90
2017,06,14,11,09,12.90
2017,06,14,11,10,16.10
2017,06,14,11,11,17.70
2017,06,14,11,12,17.70
2017,06,14,11,13,17.70
2017,06,14,11,14,16.10
2017,06,14,11,15,16.10
2017,06,14,11,16,19.30
2017,06,14,11,17,16.10
2017,06,14,11,18,16.10
2017,06,14,11,19,17.70
2017,06,14,11,20,17.70
2017,06,14,11,21,14.50
2017,06,14,11,22,17.70
2017,06,14,11,23,14.50
2017,06,14,11,24,16.10
2017,06,14,11,25,16.10
2017,06,14,11,26,14.50
2017,06,14,11,27,17.70
2017,06,14,11,28,16.10
2017,06,14,11,29,19.30
2017,06,14,11,30,19.30
2017,06,14,11,31,20.90
2017,06,14,11,32,19.30
2017,06,14,11,33,20.90
2017,06,14,11,34,20.90
2017,06,14,11,35,25.70
2017,06,14,11,36,25.70
2017,06,14,11,37,24.20
2017,06,14,11,38,24.20
2017,06,14,11,39,24.20
2017,06,14,11,40,20.90
2017,06,14,11,41,22.50
2017,06,14,11,42,17.70
2017,06,14,11,43,17.70
2017,06,14,11,44,19.30
2017,06,14,11,45,16.10
2017,06,14,11,46,20.90
2017,06,14,11,47,20.90
2017,06,14,11,48,20.90
2017,06,14,11,49,16.10
2017,06,14,11,50,16.10
2017,06,14,11,51,20.90
2017,06,14,11,52,27.40
2017,06,14,11,53,22.50
2017,06,14,11,54,19.30
2017,06,14,11,55,20.90
2017,06,14,11,56,24.20
2017,06,14,11,57,22.50
2017,06,14,11,58,22.50
2017,06,14,11,59,22.50
2017,06,14,12,00,20.90
2017,06,14,12,01,24.20
2017,06,14,12,02,27.40
2017,06,14,12,03,20.90
2017,06,14,12,04,22.50
2017,06,14,12,05,25.70
2017,06,14,12,06,24.20
2017,06,14,12,07,17.70
2017,06,14,12,08,24.20
2017,06,14,12,09,24.20
2017,06,14,12,10,24.20
2017,06,14,12,11,22.50
2017,06,14,12,12,22.50
2017,06,14,12,13,24.20
2017,06,14,12,14,19.30
2017,06,14,12,15,16.10
2017,06,14,12,16,27.40
2017,06,14,12,17,22.50
2017,06,14,12,18,22.50
2017,06,14,12,19,22.50
2017,06,14,12,20,27.40
2017,06,14,12,21,25.70
2017,06,14,12,22,25.70
2017,06,14,12,23,29.00
2017,06,14,12,24,30.60
2017,06,14,12,25,30.60
2017,06,14,12,26,27.40
2017,06,14,12,27,30.60
2017,06,14,12,28,22.50
2017,06,14,12,29,22.50
2017,06,14,12,30,17.70
2017,06,14,12,31,25.70
2017,06,14,12,32,22.50
2017,06,14,12,33,27.40
2017,06,14,12,34,25.70
2017,06,14,12,35,24.20
2017,06,14,12,36,22.50
2017,06,14,12,37,20.90
2017,06,14,12,38,22.50
2017,06,14,12,39,25.70
2017,06,14,12,40,25.70
2017,06,14,12,41,27.40
2017,06,14,12,42,30.60
2017,06,14,12,43,27.40
2017,06,14,12,44,35.40
2017,06,14,12,45,29.00
2017,06,14,12,46,35.40
2017,06,14,12,47,29.00
2017,06,14,12,48,33.80
2017,06,14,12,49,27.40
2017,06,14,12,50,30.60
2017,06,14,12,51,29.00
2017,06,14,12,52,29.00
2017,06,14,12,53,33.80
2017,06,14,12,54,30.60
2017,06,14,12,55,30.60
2017,06,14,12,56,29.00
2017,06,14,12,57,25.70
2017,06,14,12,58,22.50
2017,06,14,12,59,29.00
2017,06,14,13,00,30.60
2017,06,14,13,01,30.60
2017,06,14,13,02,24.20
2017,06,14,13,03,27.40
2017,06,14,13,04,29.00
2017,06,14,13,05,25.70
2017,06,14,13,06,30.60
2017,06,14,13,07,29.00
2017,06,14,13,08,38.60
2017,06,14,13,09,29.00
2017,06,14,13,10,37.00
2017,06,14,13,11,30.60
2017,06,14,13,12,32.20
2017,06,14,13,13,29.00
2017,06,14,13,14,27.40
2017,06,14,13,15,29.00
2017,06,14,13,16,32.20
2017,06,14,13,17,30.60
2017,06,14,13,18,27.40
2017,06,14,13,19,30.60
2017,06,14,13,20,27.40
2017,06,14,13,21,29.00
2017,06,14,13,22,32.20
2017,06,14,13,23,24.20
2017,06,14,13,24,22.50
2017,06,14,13,25,27.40
2017,06,14,13,26,25.70
2017,06,14,13,27,27.40
2017,06,14,13,28,27.40
2017,06,14,13,29,35.40
2017,06,14,13,30,30.60
2017,06,14,13,31,32.20
2017,06,14,13,32,29.00
2017,06,14,13,33,37.00
2017,06,14,13,34,29.00
2017,06,14,13,35,30.60
2017,06,14,13,36,30.60
2017,06,14,13,37,30.60
2017,06,14,13,38,30.60
2017,06,14,13,39,33.80
2017,06,14,13,40,33.80
2017,06,14,13,41,33.80
2017,06,14,13,42,37.00
2017,06,14,13,43,29.00
2017,06,14,13,44,30.60
2017,06,14,13,45,32.20
2017,06,14,13,46,37.00
2017,06,14,13,47,38.60
2017,06,14,13,48,30.60
2017,06,14,13,49,33.80
2017,06,14,13,50,33.80
2017,06,14,13,51,30.60
2017,06,14,13,52,27.40
2017,06,14,13,53,29.00
2017,06,14,13,54,33.80
2017,06,14,13,55,29.00
2017,06,14,13,56,30.60
2017,06,14,13,57,33.80
2017,06,14,13,58,33.80
2017,06,14,13,59,30.60
2017,06,14,14,00,33.80
2017,06,14,14,01,27.40
2017,06,14,14,02,40.20
2017,06,14,14,03,38.60
2017,06,14,14,04,38.60
2017,06,14,14,05,38.60
2017,06,14,14,06,38.60
2017,06,14,14,07,38.60
2017,06,14,14,08,33.80
2017,06,14,14,09,40.20
2017,06,14,14,10,40.20
2017,06,14,14,11,38.60
2017,06,14,14,12,40.20
2017,06,14,14,13,37.00
2017,06,14,14,14,38.60
2017,06,14,14,15,38.60
2017,06,14,14,16,35.40
2017,06,14,14,17,40.20
2017,06,14,14,18,40.20
2017,06,14,14,19,33.80
2017,06,14,14,20,35.40
2017,06,14,14,21,38.60
2017,06,14,14,22,40.20
2017,06,14,14,23,35.40
2017,06,14,14,24,35.40
2017,06,14,14,25,41.80
2017,06,14,14,26,38.60
2017,06,14,14,27,37.00
2017,06,14,14,28,37.00
2017,06,14,14,29,33.80
2017,06,14,14,30,33.80
2017,06,14,14,31,30.60
2017,06,14,14,32,38.60
2017,06,14,14,33,38.60
2017,06,14,14,34,35.40
2017,06,14,14,35,38.60
2017,06,14,14,36,41.80
2017,06,14,14,37,46.70
2017,06,14,14,38,40.20
2017,06,14,14,39,40.20
2017,06,14,14,40,40.20
2017,06,14,14,41,40.20
2017,06,14,14,42,38.60
2017,06,14,14,43,35.40
2017,06,14,14,44,40.20
2017,06,14,14,45,41.80
2017,06,14,14,46,45.10
2017,06,14,14,47,38.60
2017,06,14,14,48,33.80
2017,06,14,14,49,33.80
2017,06,14,14,50,35.40
2017,06,14,14,51,37.00
2017,06,14,14,52,33.80
2017,06,14,14,53,35.40
2017,06,14,14,54,33.80
2017,06,14,14,55,40.20
2017,06,14,14,56,38.60
2017,06,14,14,57,38.60
2017,06,14,14,58,37.00
2017,06,14,14,59,40.20
2017,06,14,15,00,40.20
2017,06,14,15,01,38.60
2017,06,14,15,02,33.80
2017,06,14,15,03,40.20
2017,06,14,15,04,35.40
2017,06,14,15,05,37.00
2017,06,14,15,06,38.60
2017,06,14,15,07,46.70
2017,06,14,15,08,38.60
2017,06,14,15,09,37.00
2017,06,14,15,10,35.40
2017,06,14,15,11,37.00
2017,06,14,15,12,25.70
2017,06,14,15,13,27.40
2017,06,14,15,14,30.60
2017,06,14,15,15,24.20
2017,06,14,15,16,35.40
2017,06,14,15,17,35.40
2017,06,14,15,18,37.00
2017,06,14,15,19,40.20
2017,06,14,15,20,41.80
2017,06,14,15,21,43.50
2017,06,14,15,22,43.50
2017,06,14,15,23,41.80
2017,06,14,15,24,38.60
2017,06,14,15,25,37.00
2017,06,14,15,26,38.60
2017,06,14,15,27,38.60
2017,06,14,15,28,41.80
2017,06,14,15,29,46.70
2017,06,14,15,30,51.50
2017,06,14,15,31,46.70
2017,06,14,15,32,45.10
2017,06,14,15,33,38.60
2017,06,14,15,34,40.20
2017,06,14,15,35,30.60
2017,06,14,15,36,30.60
2017,06,14,15,37,40.20
2017,06,14,15,38,40.20
2017,06,14,15,39,41.80
2017,06,14,15,40,41.80
2017,06,14,15,41,37.00
2017,06,14,15,42,33.80
2017,06,14,15,43,43.50
2017,06,14,15,44,32.20
2017,06,14,15,45,38.60
2017,06,14,15,46,40.20
2017,06,14,15,47,32.20
2017,06,14,15,48,30.60
2017,06,14,15,49,41.80
2017,06,14,15,50,38.60
2017,06,14,15,51,37.00
2017,06,14,15,52,41.80
2017,06,14,15,53,41.80
2017,06,14,15,54,41.80
2017,06,14,15,55,35.40
2017,06,14,15,56,35.40
2017,06,14,15,57,40.20
2017,06,14,15,58,41.80
2017,06,14,15,59,33.80
2017,06,14,16,00,38.60
2017,06,14,16,01,38.60
2017,06,14,16,02,46.70
2017,06,14,16,03,40.20
2017,06,14,16,04,40.20
2017,06,14,16,05,32.20
2017,06,14,16,06,40.20
2017,06,14,16,07,33.80
2017,06,14,16,08,33.80
2017,06,14,16,09,37.00
2017,06,14,16,10,33.80
2017,06,14,16,11,35.40
2017,06,14,16,12,35.40
2017,06,14,16,13,37.00
2017,06,14,16,14,40.20
2017,06,14,16,15,37.00
2017,06,14,16,16,37.00
2017,06,14,16,17,37.00
2017,06,14,16,18,35.40
2017,06,14,16,19,30.60
2017,06,14,16,20,35.40
2017,06,14,16,21,40.20
2017,06,14,16,22,37.00
2017,06,14,16,23,37.00
2017,06,14,16,24,37.00
2017,06,14,16,25,40.20
2017,06,14,16,26,37.00
2017,06,14,16,27,38.60
2017,06,14,16,28,43.50
2017,06,14,16,29,32.20
2017,06,14,16,30,38.60
2017,06,14,16,31,35.40
2017,06,14,16,32,33.80
2017,06,14,16,33,38.60
2017,06,14,16,34,33.80
2017,06,14,16,35,35.40
2017,06,14,16,36,38.60
2017,06,14,16,37,38.60
2017,06,14,16,38,35.40
2017,06,14,16,39,30.60
2017,06,14,16,40,38.60
2017,06,14,16,41,32.20
2017,06,14,16,42,35.40
2017,06,14,16,43,40.20
2017,06,14,16,44,29.00
2017,06,14,16,45,29.00
2017,06,14,16,46,30.60
2017,06,14,16,47,37.00
2017,06,14,16,48,32.20
2017,06,14,16,49,32.20
2017,06,14,16,50,35.40
2017,06,14,16,51,41.80
2017,06,14,16,52,30.60
2017,06,14,16,53,30.60
2017,06,14,16,54,38.60
2017,06,14,16,55,33.80
2017,06,14,16,56,32.20
2017,06,14,16,57,35.40
2017,06,14,16,58,40.20
2017,06,14,16,59,37.00
2017,06,14,17,00,37.00
2017,06,14,17,01,35.40
2017,06,14,17,02,41.80
2017,06,14,17,03,35.40
2017,06,14,17,04,35.40
2017,06,14,17,05,30.60
2017,06,14,17,06,37.00
2017,06,14,17,07,37.00
2017,06,14,17,08,30.60
2017,06,14,17,09,32.20
2017,06,14,17,10,33.80
2017,06,14,17,11,41.80
2017,06,14,17,12,41.80
2017,06,14,17,13,38.60
2017,06,14,17,14,37.00
2017,06,14,17,15,37.00
2017,06,14,17,16,38.60
2017,06,14,17,17,33.80
2017,06,14,17,18,33.80
2017,06,14,17,19,37.00
2017,06,14,17,20,35.40
2017,06,14,17,21,33.80
2017,06,14,17,22,32.20
2017,06,14,17,23,30.60
2017,06,14,17,24,32.20
2017,06,14,17,25,38.60
2017,06,14,17,26,37.00
2017,06,14,17,27,40.20
2017,06,14,17,28,30.60
2017,06,14,17,29,30.60
2017,06,14,17,30,32.20
2017,06,14,17,31,30.60
2017,06,14,17,32,32.20
2017,06,14,17,33,35.40
2017,06,14,17,34,32.20
2017,06,14,17,35,32.20
2017,06,14,17,36,35.40
2017,06,14,17,37,25.70
2017,06,14,17,38,33.80
2017,06,14,17,39,30.60
2017,06,14,17,40,32.20
2017,06,14,17,41,37.00
2017,06,14,17,42,30.60
2017,06,14,17,43,30.60
2017,06,14,17,44,32.20
2017,06,14,17,45,29.00
2017,06,14,17,46,27.40
2017,06,14,17,47,32.20
2017,06,14,17,48,33.80
2017,06,14,17,49,32.20
2017,06,14,17,50,38.60
2017,06,14,17,51,35.40
2017,06,14,17,52,24.20
2017,06,14,17,53,32.20
2017,06,14,17,54,27.40
2017,06,14,17,55,27.40
2017,06,14,17,56,22.50
2017,06,14,17,57,29.00
2017,06,14,17,58,29.00
2017,06,14,17,59,22.50
2017,06,14,18,00,24.20
2017,06,14,18,01,24.20
2017,06,14,18,02,27.40
2017,06,14,18,03,27.40
2017,06,14,18,04,32.20
2017,06,14,18,05,29.00
2017,06,14,18,06,30.60
2017,06,14,18,07,22.50
2017,06,14,18,08,22.50
2017,06,14,18,09,24.20
2017,06,14,18,10,20.90
2017,06,14,18,11,17.70
2017,06,14,18,12,19.30
2017,06,14,18,13,22.50
2017,06,14,18,14,24.20
2017,06,14,18,15,30.60
2017,06,14,18,16,27.40
2017,06,14,18,17,29.00
2017,06,14,18,18,25.70
2017,06,14,18,19,27.40
2017,06,14,18,20,27.40
2017,06,14,18,21,25.70
2017,06,14,18,22,25.70
2017,06,14,18,23,33.80
2017,06,14,18,24,30.60
2017,06,14,18,25,35.40
2017,06,14,18,26,30.60
2017,06,14,18,27,33.80
2017,06,14,18,28,33.80
2017,06,14,18,29,33.80
2017,06,14,18,30,32.20
2017,06,14,18,31,32.20
2017,06,14,18,32,35.40
2017,06,14,18,33,33.80
2017,06,14,18,34,30.60
2017,06,14,18,35,38.60
2017,06,14,18,36,41.80
2017,06,14,18,37,27.40
2017,06,14,18,38,25.70
2017,06,14,18,39,32.20
2017,06,14,18,40,30.60
2017,06,14,18,41,29.00
2017,06,14,18,42,29.00
2017,06,14,18,43,30.60
2017,06,14,18,44,27.40
2017,06,14,18,45,29.00
2017,06,14,18,46,20.90
2017,06,14,18,47,22.50
2017,06,14,18,48,24.20
2017,06,14,18,49,20.90
2017,06,14,18,50,25.70
2017,06,14,18,51,22.50
2017,06,14,18,52,20.90
2017,06,14,18,53,20.90
2017,06,14,18,54,20.90
2017,06,14,18,55,16.10
2017,06,14,18,56,16.10
2017,06,14,18,57,25.70
2017,06,14,18,58,22.50
2017,06,14,18,59,24.20
2017,06,14,19,00,24.20
2017,06,14,19,01,29.00
2017,06,14,19,02,24.20
2017,06,14,19,03,25.70
2017,06,14,19,04,25.70
2017,06,14,19,05,30.60
2017,06,14,19,06,30.60
2017,06,14,19,07,30.60
2017,06,14,19,08,24.20
2017,06,14,19,09,27.40
2017,06,14,19,10,27.40
2017,06,14,19,11,27.40
2017,06,14,19,12,25.70
2017,06,14,19,13,27.40
2017,06,14,19,14,38.60
2017,06,14,19,15,33.80
2017,06,14,19,16,30.60
2017,06,14,19,17,22.50
2017,06,14,19,18,22.50
2017,06,14,19,19,24.20
2017,06,14,19,20,19.30
2017,06,14,19,21,25.70
2017,06,14,19,22,29.00
2017,06,14,19,23,25.70
2017,06,14,19,24,22.50
2017,06,14,19,25,27.40
2017,06,14,19,26,24.20
2017,06,14,19,27,29.00
2017,06,14,19,28,27.40
2017,06,14,19,29,27.40
2017,06,14,19,30,27.40
2017,06,14,19,31,30.60
2017,06,14,19,32,30.60
2017,06,14,19,33,25.70
2017,06,14,19,34,25.70
2017,06,14,19,35,30.60
2017,06,14,19,36,33.80
2017,06,14,19,37,30.60
2017,06,14,19,38,32.20
2017,06,14,19,39,29.00
2017,06,14,19,40,25.70
2017,06,14,19,41,35.40
2017,06,14,19,42,40.20
2017,06,14,19,43,35.40
2017,06,14,19,44,32.20
2017,06,14,19,45,22.50
2017,06,14,19,46,37.00
2017,06,14,19,47,27.40
2017,06,14,19,48,29.00
2017,06,14,19,49,27.40
2017,06,14,19,50,30.60
2017,06,14,19,51,30.60
2017,06,14,19,52,30.60
2017,06,14,19,53,32.20
2017,06,14,19,54,30.60
2017,06,14,19,55,27.40
2017,06,14,19,56,20.90
2017,06,14,19,57,29.00
2017,06,14,19,58,27.40
2017,06,14,19,59,27.40
2017,06,14,20,00,22.50
2017,06,14,20,01,27.40
2017,06,14,20,02,37.00
2017,06,14,20,03,32.20
2017,06,14,20,04,35.40
2017,06,14,20,05,30.60
2017,06,14,20,06,29.00
2017,06,14,20,07,25.70
2017,06,14,20,08,30.60
2017,06,14,20,09,25.70
2017,06,14,20,10,22.50
2017,06,14,20,11,25.70
2017,06,14,20,12,29.00
2017,06,14,20,13,27.40
2017,06,14,20,14,22.50
2017,06,14,20,15,22.50
2017,06,14,20,16,25.70
2017,06,14,20,17,22.50
2017,06,14,20,18,25.70
2017,06,14,20,19,24.20
2017,06,14,20,20,20.90
2017,06,14,20,21,27.40
2017,06,14,20,22,27.40
2017,06,14,20,23,22.50
2017,06,14,20,24,22.50
2017,06,14,20,25,19.30
2017,06,14,20,26,20.90
2017,06,14,20,27,16.10
2017,06,14,20,28,24.20
2017,06,14,20,29,27.40
2017,06,14,20,30,30.60
2017,06,14,20,31,30.60
2017,06,14,20,32,29.00
2017,06,14,20,33,35.40
2017,06,14,20,34,30.60
2017,06,14,20,35,32.20
2017,06,14,20,36,32.20
2017,06,14,20,37,32.20
2017,06,14,20,38,32.20
2017,06,14,20,39,30.60
2017,06,14,20,40,27.40
2017,06,14,20,41,25.70
2017,06,14,20,42,27.40
2017,06,14,20,43,30.60
2017,06,14,20,44,32.20
2017,06,14,20,45,29.00
2017,06,14,20,46,17.70
2017,06,14,20,47,29.00
2017,06,14,20,48,32.20
2017,06,14,20,49,25.70
2017,06,14,20,50,24.20
2017,06,14,20,51,22.50
2017,06,14,20,52,27.40
2017,06,14,20,53,24.20
2017,06,14,20,54,22.50
2017,06,14,20,55,24.20
2017,06,14,20,56,27.40
2017,06,14,20,57,25.70
2017,06,14,20,58,22.50
2017,06,14,20,59,22.50
2017,06,14,21,00,20.90
2017,06,14,21,01,22.50
2017,06,14,21,02,25.70
2017,06,14,21,03,20.90
2017,06,14,21,04,19.30
2017,06,14,21,05,20.90
2017,06,14,21,06,25.70
2017,06,14,21,07,24.20
2017,06,14,21,08,27.40
2017,06,14,21,09,27.40
2017,06,14,21,10,24.20
2017,06,14,21,11,22.50
2017,06,14,21,12,24.20
2017,06,14,21,13,25.70
2017,06,14,21,14,24.20
2017,06,14,21,15,22.50
2017,06,14,21,16,29.00
2017,06,14,21,17,22.50
2017,06,14,21,18,24.20
2017,06,14,21,19,20.90
2017,06,14,21,20,17.70
2017,06,14,21,21,19.30
2017,06,14,21,22,17.70
2017,06,14,21,23,20.90
2017,06,14,21,24,20.90
2017,06,14,21,25,20.90
2017,06,14,21,26,17.70
2017,06,14,21,27,22.50
2017,06,14,21,28,11.30
2017,06,14,21,29,14.50
2017,06,14,21,30,17.70
2017,06,14,21,31,16.10
2017,06,14,21,32,14.50
2017,06,14,21,33,14.50
2017,06,14,21,34,14.50
2017,06,14,21,35,24.20
2017,06,14,21,36,16.10
2017,06,14,21,37,12.90
2017,06,14,21,38,16.10
2017,06,14,21,39,17.70
2017,06,14,21,40,12.90
2017,06,14,21,41,19.30
2017,06,14,21,42,20.90
2017,06,14,21,43,17.70
2017,06,14,21,44,17.70
2017,06,14,21,45,17.70
2017,06,14,21,46,24.20
2017,06,14,21,47,27.40
2017,06,14,21,48,22.50
2017,06,14,21,49,24.20
2017,06,14,21,50,22.50
2017,06,14,21,51,20.90
2017,06,14,21,52,20.90
2017,06,14,21,53,24.20
2017,06,14,21,54,25.70
2017,06,14,21,55,24.20
2017,06,14,21,56,19.30
2017,06,14,21,57,17.70
2017,06,14,21,58,20.90
2017,06,14,21,59,22.50
2017,06,14,22,00,22.50
2017,06,14,22,01,19.30
2017,06,14,22,02,19.30
2017,06,14,22,03,24.20
2017,06,14,22,04,24.20
2017,06,14,22,05,19.30
2017,06,14,22,06,16.10
2017,06,14,22,07,16.10
2017,06,14,22,08,17.70
2017,06,14,22,09,19.30
2017,06,14,22,10,22.50
2017,06,14,22,11,22.50
2017,06,14,22,12,22.50
2017,06,14,22,13,22.50
2017,06,14,22,14,29.00
2017,06,14,22,15,22.50
2017,06,14,22,16,22.50
2017,06,14,22,17,29.00
2017,06,14,22,18,22.50
2017,06,14,22,19,17.70
2017,06,14,22,20,19.30
2017,06,14,22,21,19.30
2017,06,14,22,22,16.10
2017,06,14,22,23,19.30
2017,06,14,22,24,17.70
2017,06,14,22,25,17.70
2017,06,14,22,26,17.70
2017,06,14,22,27,24.20
2017,06,14,22,28,17.70
2017,06,14,22,29,22.50
2017,06,14,22,30,19.30
2017,06,14,22,31,25.70
2017,06,14,22,32,19.30
2017,06,14,22,33,17.70
2017,06,14,22,34,16.10
2017,06,14,22,35,11.30
2017,06,14,22,36,12.90
2017,06,14,22,37,16.10
2017,06,14,22,38,16.10
2017,06,14,22,39,22.50
2017,06,14,22,40,19.30
2017,06,14,22,41,14.50
2017,06,14,22,42,11.30
2017,06,14,22,43,14.50
2017,06,14,22,44,16.10
2017,06,14,22,45,12.90
2017,06,14,22,46,12.90
2017,06,14,22,47,12.90
2017,06,14,22,48,9.60
2017,06,14,22,49,17.70
2017,06,14,22,50,16.10
2017,06,14,22,51,9.60
2017,06,14,22,52,16.10
2017,06,14,22,53,14.50
2017,06,14,22,54,9.60
2017,06,14,22,55,11.30
2017,06,14,22,56,9.60
2017,06,14,22,57,12.90
2017,06,14,22,58,17.70
2017,06,14,22,59,14.50
2017,06,14,23,00,12.90
2017,06,14,23,01,14.50
2017,06,14,23,02,14.50
2017,06,14,23,03,11.30
2017,06,14,23,04,16.10
2017,06,14,23,05,12.90
2017,06,14,23,06,12.90
2017,06,14,23,07,11.30
2017,06,14,23,08,16.10
2017,06,14,23,09,12.90
2017,06,14,23,10,11.30
2017,06,14,23,11,11.30
2017,06,14,23,12,8.10
2017,06,14,23,13,9.60
2017,06,14,23,14,11.30
2017,06,14,23,15,8.10
2017,06,14,23,16,11.30
2017,06,14,23,17,6.40
2017,06,14,23,18,12.90
2017,06,14,23,19,12.90
2017,06,14,23,20,8.10
2017,06,14,23,21,11.30
2017,06,14,23,22,11.30
2017,06,14,23,23,11.30
2017,06,14,23,24,8.10
2017,06,14,23,25,4.80
2017,06,14,23,26,4.80
2017,06,14,23,27,6.40
2017,06,14,23,28,4.80
2017,06,14,23,29,4.80
2017,06,14,23,30,3.20
2017,06,14,23,31,3.20
2017,06,14,23,32,6.40
2017,06,14,23,33,6.40
2017,06,14,23,34,8.10
2017,06,14,23,35,4.80
2017,06,14,23,36,4.80
2017,06,14,23,37,4.80
2017,06,14,23,38,3.20
2017,06,14,23,39,4.80
2017,06,14,23,40,3.20
2017,06,14,23,41,3.20
2017,06,14,23,42,3.20
2017,06,14,23,43,4.80
2017,06,14,23,44,4.80
2017,06,14,23,45,4.80
2017,06,14,23,55,3.20
2017,06,14,23,56,4.80
2017,06,14,23,57,4.80
2017,06,14,23,58,6.40
2017,06,14,23,59,6.40
